Location: Unspecified
(58.7730°N, 5.8460°E)
Time: 08:44:54
(UTC+02:00)

Resurs 1-4 Rocket - Visible Passes

Search period start: 24 August 2016 00:00
Search period end: 03 September 2016 00:00
Orbit: 799 x 815 km, 98.4° (Epoch: 23 August)

Date Brightness Start Highest point End Pass type
(mag) Time Alt. Az. Time Alt. Az. Time Alt. Az.
24 Aug 4.6 02:40:11 10° NE 02:42:17 12° E 02:44:22 10° ESE visible
24 Aug 2.7 04:18:11 10° NNE 04:23:23 54° E 04:28:32 10° S visible
25 Aug 3.3 03:53:46 10° NNE 03:58:39 37° E 04:03:33 10° SSE visible
26 Aug 3.9 03:29:27 10° NNE 03:33:52 26° E 03:38:17 10° SSE visible
26 Aug 2.1 05:08:59 10° NNE 05:14:16 74° WNW 05:19:32 10° SSW visible
27 Aug 4.3 03:05:21 10° NE 03:08:59 19° E 03:12:36 10° SE visible
27 Aug 2.2 04:44:24 10° NNE 04:49:43 79° ESE 04:55:00 10° SSW visible
28 Aug 4.6 02:41:44 10° NE 02:44:00 13° E 02:46:17 10° ESE visible
28 Aug 2.7 04:19:53 10° NNE 04:25:05 55° E 04:30:16 10° S visible
29 Aug 3.3 03:55:26 10° NNE 04:00:22 39° E 04:05:17 10° SSE visible
29 Aug 2.4 05:35:19 10° NNE 05:40:25 51° WNW 05:45:31 10° SW visible
30 Aug 3.8 03:31:06 10° NNE 03:35:35 27° E 03:40:02 10° SSE visible
30 Aug 2.1 05:10:41 10° NNE 05:15:57 72° WNW 05:21:13 10° SSW visible
31 Aug 4.3 03:06:58 10° NE 03:10:43 19° E 03:14:25 10° SE visible
31 Aug 2.2 04:46:05 10° NNE 04:51:24 81° ESE 04:56:42 10° SSW visible
01 Sep 4.6 02:43:17 10° NE 02:45:44 13° E 02:48:11 10° ESE visible
01 Sep 2.6 04:21:33 10° NNE 04:26:47 57° ESE 04:31:53 10° S visible
02 Sep 3.2 03:57:06 10° NNE 04:02:05 40° E 04:06:57 10° SSE visible
02 Sep 2.5 05:37:00 10° N 05:42:07 50° WNW 05:47:11 10° SW visible
